FW0153 Weather Reports


time (UTC)temp
C
wind
direction
speed
KPH
gust
KPH
rain 1hr
cm
rain 24hr
cm
rain mn
cm
humidity
%
barometer
mb
20260831015505 28 23 14.5 0.0 0.00 0.00 0.00 61 1011.0
20260831015211 28 105 20.9 0.0 0.00 0.00 0.00 60 1010.6
20260831014505 28 122 14.5 0.0 0.00 0.00 0.00 59 1010.6
20260831014005 28 104 37.0 0.0 0.00 0.00 0.00 59 1010.6
20260831013712 28 28 37.0 0.0 0.00 0.00 0.00 59 1011.0
20260831013005 28 79 6.4 0.0 0.00 0.00 0.00 58 1010.6
20260831012504 28 19 14.5 0.0 0.00 0.00 0.00 58 1010.6
20260831012213 28 105 14.5 0.0 0.00 0.00 0.00 58 1010.6
20260831011505 29 94 43.5 0.0 0.00 0.00 0.00 57 1010.6
20260831011005 29 24 37.0 0.0 0.00 0.00 0.00 58 1010.6
20260831010712 29 121 6.4 0.0 0.00 0.00 0.00 57 1010.6
20260831010005 29 68 6.4 0.0 0.00 0.00 0.00 57 1010.6
20260831005712 30 67 43.5 0.0 0.00 0.00 0.00 56 1010.3
20260831005005 30 91 37.0 0.0 0.00 0.00 0.00 55 1010.3
20260831004504 30 135 51.5 0.0 0.00 0.00 0.00 54 1010.3
20260831004005 30 36 14.5 0.0 0.00 0.00 0.00 53 1010.3
20260831003505 30 143 43.5 0.0 0.00 0.00 0.00 53 1009.9
20260831003005 30 64 14.5 0.0 0.00 0.00 0.00 53 1009.9
20260831002505 30 69 20.9 0.0 0.00 0.00 0.00 53 1009.6
20260831002005 30 50 14.5 0.0 0.00 0.00 0.00 52 1009.6
20260831001505 30 91 29.0 0.0 0.00 0.00 0.00 51 1009.6
20260831001005 30 41 14.5 0.0 0.00 0.00 0.00 51 1009.6
20260831000504 31 101 37.0 0.0 0.00 0.00 0.00 50 1009.6
20260831000005 31 113 14.5 0.0 0.00 0.00 0.00 50 1009.6
20260830235714 31 35 29.0 0.0 0.00 0.00 0.00 50 1009.6
20260830235005 31 191 6.4 0.0 0.00 0.00 0.00 49 1009.6
20260830234714 31 128 20.9 0.0 0.00 0.00 0.00 48 1009.6
20260830234005 31 135 20.9 0.0 0.00 0.00 0.00 46 1009.6
20260830233505 31 152 14.5 0.0 0.00 0.00 0.00 47 1009.6
20260830233005 31 25 20.9 0.0 0.00 0.00 0.00 45 1009.3
20260830232505 32 42 37.0 0.0 0.00 0.00 0.00 44 1009.6
20260830232005 32 106 20.9 0.0 0.00 0.00 0.00 43 1009.6
20260830231505 32 165 20.9 0.0 0.00 0.00 0.00 43 1009.3
20260830231005 32 96 20.9 0.0 0.00 0.00 0.00 43 1009.3
20260830230713 32 152 6.4 0.0 0.00 0.00 0.00 43 1009.3
20260830230005 32 144 29.0 0.0 0.00 0.00 0.00 41 1009.3
20260830225713 32 21 6.4 0.0 0.00 0.00 0.00 41 1009.3
20260830225005 32 32 20.9 0.0 0.00 0.00 0.00 40 1009.3
20260830224505 32 155 14.5 0.0 0.00 0.00 0.00 41 1009.3
20260830224005 32 78 20.9 0.0 0.00 0.00 0.00 44 1009.3
20260830223505 32 348 29.0 0.0 0.00 0.00 0.00 45 1009.3
20260830223005 32 49 6.4 0.0 0.00 0.00 0.00 46 1008.9
20260830222505 32 27 20.9 0.0 0.00 0.00 0.00 46 1008.9
20260830222005 32 323 20.9 0.0 0.00 0.00 0.00 46 1008.9
20260830221505 32 108 59.5 0.0 0.00 0.00 0.00 45 1009.3
20260830221005 33 38 6.4 0.0 0.00 0.00 0.00 45 1008.9
20260830220505 32 331 20.9 0.0 0.00 0.00 0.00 43 1008.9
20260830220005 32 46 37.0 0.0 0.00 0.00 0.00 44 1008.9
20260830215505 32 68 20.9 0.0 0.00 0.00 0.00 41 1008.9
20260830215005 32 165 29.0 0.0 0.00 0.00 0.00 41 1008.9
20260830214504 32 71 29.0 0.0 0.00 0.00 0.00 41 1008.9
20260830214005 33 73 20.9 0.0 0.00 0.00 0.00 39 1009.3
20260830213505 33 93 29.0 0.0 0.00 0.00 0.00 38 1009.3
20260830213005 33 166 6.4 0.0 0.00 0.00 0.00 39 1009.3
20260830212505 33 158 20.9 0.0 0.00 0.00 0.00 37 1009.3
20260830212005 33 53 14.5 0.0 0.00 0.00 0.00 38 1009.6
20260830211505 33 51 6.4 0.0 0.00 0.00 0.00 38 1009.6
20260830211005 33 41 14.5 0.0 0.00 0.00 0.00 38 1009.3
20260830210505 33 154 14.5 0.0 0.00 0.00 0.00 36 1009.6
20260830210006 33 73 20.9 0.0 0.00 0.00 0.00 37 1009.6
20260830205505 33 6 6.4 0.0 0.00 0.00 0.00 38 1009.6
20260830205005 34 57 14.5 0.0 0.00 0.00 0.00 35 1009.6
20260830204712 35 87 20.9 0.0 0.00 0.00 0.00 35 1009.9
20260830204213 34 17 6.4 0.0 0.00 0.00 0.00 39 1009.9
20260830203712 34 147 20.9 0.0 0.00 0.00 0.00 36 1010.3
20260830203005 34 192 14.5 0.0 0.00 0.00 0.00 37 1010.3
20260830202504 33 129 6.4 0.0 0.00 0.00 0.00 37 1010.3
20260830202005 34 144 0.0 0.0 0.00 0.00 0.00 37 1010.6
20260830201505 33 150 6.4 0.0 0.00 0.00 0.00 38 1010.6
20260830201005 34 135 0.0 0.0 0.00 0.00 0.00 37 1010.6
20260830200505 33 167 14.5 0.0 0.00 0.00 0.00 39 1010.6
20260830200213 33 161 6.4 0.0 0.00 0.00 0.00 39 1010.6
20260830195712 33 115 0.0 0.0 0.00 0.00 0.00 41 1011.0
20260830195005 33 81 6.4 0.0 0.00 0.00 0.00 38 1011.0
20260830194505 33 168 0.0 0.0 0.00 0.00 0.00 38 1011.0
20260830194005 33 169 14.5 0.0 0.00 0.00 0.00 39 1011.3
20260830193505 33 182 14.5 0.0 0.00 0.00 0.00 36 1011.3
20260830193005 33 89 6.4 0.0 0.00 0.00 0.00 39 1011.0
20260830192505 33 112 6.4 0.0 0.00 0.00 0.00 40 1011.3
20260830192005 34 141 6.4 0.0 0.00 0.00 0.00 37 1011.6
20260830191505 33 120 20.9 0.0 0.00 0.00 0.00 37 1011.6
20260830191005 33 96 37.0 0.0 0.00 0.00 0.00 39 1011.6
20260830190504 33 143 20.9 0.0 0.00 0.00 0.00 38 1011.6
20260830190005 33 132 29.0 0.0 0.00 0.00 0.00 36 1012.0
20260830185505 33 163 6.4 0.0 0.00 0.00 0.00 42 1011.6
20260830185005 33 73 20.9 0.0 0.00 0.00 0.00 40 1012.0
20260830184505 33 143 6.4 0.0 0.00 0.00 0.00 39 1012.0
20260830184005 33 164 20.9 0.0 0.00 0.00 0.00 38 1012.3
20260830183505 33 58 0.0 0.0 0.00 0.00 0.00 38 1012.3
20260830183212 32 48 14.5 0.0 0.00 0.00 0.00 43 1012.3
20260830182505 33 54 6.4 0.0 0.00 0.00 0.00 42 1012.3
20260830182005 33 57 20.9 0.0 0.00 0.00 0.00 40 1012.7
20260830181505 33 123 14.5 0.0 0.00 0.00 0.00 42 1012.7
20260830181005 33 139 29.0 0.0 0.00 0.00 0.00 42 1012.7
20260830180505 33 162 14.5 0.0 0.00 0.00 0.00 42 1012.7
20260830180005 33 127 6.4 0.0 0.00 0.00 0.00 44 1012.7
20260830175505 32 111 20.9 0.0 0.00 0.00 0.00 43 1013.0
20260830175005 32 188 20.9 0.0 0.00 0.00 0.00 44 1013.0
20260830174713 32 120 6.4 0.0 0.00 0.00 0.00 46 1013.0
20260830174212 32 68 6.4 0.0 0.00 0.00 0.00 44 1013.0
20260830173505 32 88 20.9 0.0 0.00 0.00 0.00 46 1013.0
20260830173004 32 161 29.0 0.0 0.00 0.00 0.00 44 1013.3
20260830172505 32 109 6.4 0.0 0.00 0.00 0.00 45 1013.3
20260830172005 32 95 29.0 0.0 0.00 0.00 0.00 47 1013.7
20260830171505 32 145 20.9 0.0 0.00 0.00 0.00 45 1013.3
20260830171005 31 102 59.5 0.0 0.00 0.00 0.00 46 1013.7
20260830170505 31 68 20.9 0.0 0.00 0.00 0.00 49 1013.7
20260830170005 31 127 6.4 0.0 0.00 0.00 0.00 48 1013.7
20260830165504 31 93 20.9 0.0 0.00 0.00 0.00 48 1014.0
20260830165005 32 41 14.5 0.0 0.00 0.00 0.00 48 1014.0
20260830164505 31 157 14.5 0.0 0.00 0.00 0.00 49 1014.0
20260830164212 31 59 43.5 0.0 0.00 0.00 0.00 51 1013.7
20260830163505 31 27 14.5 0.0 0.00 0.00 0.00 50 1014.0
20260830163005 31 77 29.0 0.0 0.00 0.00 0.00 51 1014.0
20260830162505 31 288 6.4 0.0 0.00 0.00 0.00 52 1014.0
20260830162005 31 88 29.0 0.0 0.00 0.00 0.00 52 1014.0
20260830161505 31 98 14.5 0.0 0.00 0.00 0.00 53 1014.0
20260830161005 31 112 6.4 0.0 0.00 0.00 0.00 53 1014.0
20260830160506 30 187 14.5 0.0 0.00 0.00 0.00 55 1014.0
20260830160005 30 148 29.0 0.0 0.00 0.00 0.00 55 1014.0
20260830155505 30 60 6.4 0.0 0.00 0.00 0.00 55 1014.0
20260830155005 30 59 14.5 0.0 0.00 0.00 0.00 58 1014.0
20260830154505 30 358 20.9 0.0 0.00 0.00 0.00 58 1014.0
20260830154005 30 151 20.9 0.0 0.00 0.00 0.00 58 1014.0
20260830153505 30 127 20.9 0.0 0.00 0.00 0.00 57 1014.0
20260830153211 30 43 14.5 0.0 0.00 0.00 0.00 59 1014.0
20260830152505 29 158 14.5 0.0 0.00 0.00 0.00 61 1014.0
20260830152005 28 84 14.5 0.0 0.00 0.00 0.00 63 1014.0
20260830151505 29 115 20.9 0.0 0.00 0.00 0.00 61 1014.0
20260830151005 28 116 20.9 0.0 0.00 0.00 0.00 64 1014.0
20260830150712 29 358 29.0 0.0 0.00 0.00 0.00 64 1014.0
20260830150005 29 156 14.5 0.0 0.00 0.00 0.00 65 1014.0
20260830145505 28 101 6.4 0.0 0.00 0.00 0.00 65 1014.0
20260830145005 28 51 6.4 0.0 0.00 0.00 0.00 66 1014.0
20260830144505 28 119 14.5 0.0 0.00 0.00 0.00 67 1014.0
20260830144213 28 163 0.0 0.0 0.00 0.00 0.00 68 1013.7
20260830143505 28 138 20.9 0.0 0.00 0.00 0.00 69 1013.7
20260830143005 28 2 37.0 0.0 0.00 0.00 0.00 70 1014.0
20260830142505 28 186 37.0 0.0 0.00 0.00 0.00 70 1013.7
20260830142005 27 135 20.9 0.0 0.00 0.00 0.00 72 1013.7
20260830141505 27 66 20.9 0.0 0.00 0.00 0.00 72 1013.7
20260830141005 27 28 6.4 0.0 0.00 0.00 0.00 73 1013.7
20260830140505 27 89 0.0 0.0 0.00 0.00 0.00 75 1013.7
20260830140005 27 158 20.9 0.0 0.00 0.00 0.00 76 1013.7
20260830135505 27 136 6.4 0.0 0.00 0.00 0.00 76 1013.3
20260830135005 27 52 0.0 0.0 0.00 0.00 0.00 78 1013.3
20260830134505 26 116 6.4 0.0 0.00 0.00 0.00 80 1013.3
20260830134004 26 84 14.5 0.0 0.00 0.00 0.00 81 1013.3
20260830133505 26 27 6.4 0.0 0.00 0.00 0.00 82 1013.3
20260830133005 26 164 6.4 0.0 0.00 0.00 0.00 84 1013.3
20260830132505 25 179 6.4 0.0 0.00 0.00 0.00 84 1013.3
20260830132005 25 147 6.4 0.0 0.00 0.00 0.00 85 1013.3
20260830131505 25 102 14.5 0.0 0.00 0.00 0.00 86 1013.3
20260830131005 25 87 6.4 0.0 0.00 0.00 0.00 86 1013.3
20260830130505 25 116 0.0 0.0 0.00 0.00 0.00 87 1013.3
20260830130005 25 99 0.0 0.0 0.00 0.00 0.00 87 1013.3
20260830125711 25 121 0.0 0.0 0.00 0.00 0.00 88 1013.3
20260830125005 25 120 0.0 0.0 0.00 0.00 0.00 88 1013.3
20260830124505 25 119 0.0 0.0 0.00 0.00 0.00 88 1013.3
20260830124005 25 129 0.0 0.0 0.00 0.00 0.00 88 1013.3
20260830123713 25 130 0.0 0.0 0.00 0.00 0.00 88 1013.0
20260830123005 25 124 0.0 0.0 0.00 0.00 0.00 88 1013.0
20260830122505 25 138 6.4 0.0 0.00 0.00 0.00 88 1013.0
20260830122004 25 135 6.4 0.0 0.00 0.00 0.00 89 1012.7
20260830121505 25 85 6.4 0.0 0.00 0.00 0.00 89 1013.0
20260830121005 25 81 0.0 0.0 0.00 0.00 0.00 88 1012.7
20260830120505 25 107 6.4 0.0 0.00 0.00 0.00 88 1013.0
20260830120212 25 101 0.0 0.0 0.00 0.00 0.00 88 1013.0
20260830115505 25 120 0.0 0.0 0.00 0.00 0.00 88 1013.0
20260830115005 25 156 0.0 0.0 0.00 0.00 0.00 88 1013.0
20260830114505 25 112 0.0 0.0 0.00 0.00 0.00 88 1013.0
20260830114005 25 110 0.0 0.0 0.00 0.00 0.00 88 1012.7
20260830113505 25 54 6.4 0.0 0.00 0.00 0.00 88 1012.7
20260830113005 25 61 0.0 0.0 0.00 0.00 0.00 88 1012.7
20260830112504 25 73 0.0 0.0 0.00 0.00 0.00 87 1012.7
20260830112005 25 115 0.0 0.0 0.00 0.00 0.00 87 1012.7
20260830111505 25 129 0.0 0.0 0.00 0.00 0.00 87 1012.7
20260830111005 25 86 0.0 0.0 0.00 0.00 0.00 87 1013.0
20260830110505 25 126 0.0 0.0 0.00 0.00 0.00 87 1013.0
20260830110005 25 121 0.0 0.0 0.00 0.00 0.00 87 1013.0
20260830105505 25 115 0.0 0.0 0.00 0.00 0.00 86 1013.0
20260830105005 25 112 0.0 0.0 0.00 0.00 0.00 86 1012.7
20260830104505 25 118 0.0 0.0 0.00 0.00 0.00 86 1012.3
20260830104005 25 107 6.4 0.0 0.00 0.00 0.00 86 1012.3
20260830103504 25 86 6.4 0.0 0.00 0.00 0.00 86 1012.7
20260830103005 25 28 6.4 0.0 0.00 0.00 0.00 86 1012.7
20260830102505 25 95 0.0 0.0 0.00 0.00 0.00 86 1012.7
20260830102005 25 111 0.0 0.0 0.00 0.00 0.00 86 1013.0
20260830101505 25 90 0.0 0.0 0.00 0.00 0.00 86 1013.0
20260830101005 25 112 0.0 0.0 0.00 0.00 0.00 85 1012.7
20260830100505 25 81 6.4 0.0 0.00 0.00 0.00 85 1012.7
20260830100213 25 120 0.0 0.0 0.00 0.00 0.00 85 1012.7
20260830095712 25 109 6.4 0.0 0.00 0.00 0.00 85 1012.7
20260830095005 25 85 6.4 0.0 0.00 0.00 0.00 85 1012.7
20260830094505 25 111 0.0 0.0 0.00 0.00 0.00 84 1012.7
20260830094005 25 95 6.4 0.0 0.00 0.00 0.00 84 1012.7
20260830093505 25 137 6.4 0.0 0.00 0.00 0.00 84 1012.7
20260830093213 25 105 6.4 0.0 0.00 0.00 0.00 84 1012.7
20260830092712 25 100 6.4 0.0 0.00 0.00 0.00 84 1013.0
20260830092005 25 83 0.0 0.0 0.00 0.00 0.00 84 1013.0
20260830091505 25 131 6.4 0.0 0.00 0.00 0.00 84 1013.0
20260830091211 25 122 0.0 0.0 0.00 0.00 0.00 84 1013.0
20260830090505 25 107 0.0 0.0 0.00 0.00 0.00 84 1013.0
20260830090213 25 113 0.0 0.0 0.00 0.00 0.00 83 1013.0
20260830085505 25 137 6.4 0.0 0.00 0.00 0.00 83 1012.7
20260830085005 25 103 6.4 0.0 0.00 0.00 0.00 83 1013.0
20260830084505 25 125 14.5 0.0 0.00 0.00 0.00 83 1013.0
20260830084005 25 124 14.5 0.0 0.00 0.00 0.00 83 1013.0
20260830083505 25 176 6.4 0.0 0.00 0.00 0.00 83 1013.3
20260830083005 25 142 6.4 0.0 0.00 0.00 0.00 83 1013.0
20260830082506 25 128 14.5 0.0 0.00 0.00 0.00 83 1013.0
20260830082005 25 165 20.9 0.0 0.00 0.00 0.00 83 1013.0
20260830081711 25 48 6.4 0.0 0.00 0.00 0.00 83 1013.3
20260830081005 26 128 6.4 0.0 0.00 0.00 0.00 83 1013.3
20260830080505 25 142 14.5 0.0 0.00 0.00 0.00 83 1013.0
20260830080005 25 109 6.4 0.0 0.00 0.00 0.00 83 1013.3
20260830075505 25 134 14.5 0.0 0.00 0.00 0.00 83 1013.7
20260830075005 25 130 0.0 0.0 0.00 0.00 0.00 83 1013.3
20260830074505 25 126 0.0 0.0 0.00 0.00 0.00 83 1013.7
20260830074005 25 130 0.0 0.0 0.00 0.00 0.00 83 1013.7
20260830073713 25 74 0.0 0.0 0.00 0.00 0.00 83 1013.3
20260830073212 25 103 0.0 0.0 0.00 0.00 0.00 83 1013.7
20260830072505 25 118 0.0 0.0 0.00 0.00 0.00 83 1013.7
20260830072005 25 132 0.0 0.0 0.00 0.00 0.00 83 1013.7
20260830071505 25 132 0.0 0.0 0.00 0.00 0.00 83 1013.7
20260830071005 25 44 14.5 0.0 0.00 0.00 0.00 83 1013.7
20260830070713 25 98 0.0 0.0 0.00 0.00 0.00 83 1013.7
20260830070212 25 111 6.4 0.0 0.00 0.00 0.00 83 1014.0
20260830065713 25 112 0.0 0.0 0.00 0.00 0.00 82 1014.0
20260830065005 26 131 0.0 0.0 0.00 0.00 0.00 82 1014.0
20260830064505 26 82 0.0 0.0 0.00 0.00 0.00 82 1014.0
20260830064212 26 84 6.4 0.0 0.00 0.00 0.00 82 1014.0
20260830063505 26 49 6.4 0.0 0.00 0.00 0.00 82 1014.0
20260830063005 26 113 0.0 0.0 0.00 0.00 0.00 81 1014.0
20260830062713 26 111 0.0 0.0 0.00 0.00 0.00 81 1014.0
20260830062005 26 50 0.0 0.0 0.00 0.00 0.00 81 1014.0
20260830061505 26 108 0.0 0.0 0.00 0.00 0.00 81 1014.0
20260830061004 26 113 0.0 0.0 0.00 0.00 0.00 80 1014.0
20260830060506 26 43 6.4 0.0 0.00 0.00 0.00 80 1014.0
20260830060005 26 82 6.4 0.0 0.00 0.00 0.00 80 1014.0
20260830055505 26 95 20.9 0.0 0.00 0.00 0.00 80 1014.0
20260830055005 26 111 6.4 0.0 0.00 0.00 0.00 80 1014.0
20260830054713 26 40 20.9 0.0 0.00 0.00 0.00 80 1014.0
20260830054212 26 137 6.4 0.0 0.00 0.00 0.00 80 1014.0
20260830053505 26 123 0.0 0.0 0.00 0.00 0.00 79 1014.0
20260830053005 26 123 14.5 0.0 0.00 0.00 0.00 79 1014.0
20260830052505 26 93 6.4 0.0 0.00 0.00 0.00 79 1014.4
20260830052005 26 120 0.0 0.0 0.00 0.00 0.00 78 1014.4
20260830051504 26 129 0.0 0.0 0.00 0.00 0.00 78 1014.0
20260830051214 26 36 14.5 0.0 0.00 0.00 0.00 78 1014.4
20260830050505 26 80 20.9 0.0 0.00 0.00 0.00 78 1014.4
20260830045505 26 153 6.4 0.0 0.00 0.00 0.00 77 1014.4
20260830045005 26 93 14.5 0.0 0.00 0.00 0.00 77 1014.0
20260830044505 26 152 20.9 0.0 0.00 0.00 0.00 76 1014.0
20260830044005 26 61 14.5 0.0 0.00 0.00 0.00 76 1014.4
20260830043505 26 68 14.5 0.0 0.00 0.00 0.00 76 1014.0
20260830043005 26 79 14.5 0.0 0.00 0.00 0.00 75 1014.4
20260830042505 26 59 14.5 0.0 0.00 0.00 0.00 74 1014.0
20260830042005 26 237 14.5 0.0 0.00 0.00 0.00 74 1014.0
20260830041505 26 53 20.9 0.0 0.00 0.00 0.00 73 1014.0
20260830041211 26 77 14.5 0.0 0.00 0.00 0.00 73 1014.0
20260830040505 26 83 29.0 0.0 0.00 0.00 0.00 72 1014.0
20260830040005 26 88 6.4 0.0 0.00 0.00 0.00 72 1014.0
20260830035505 26 149 6.4 0.0 0.00 0.00 0.00 71 1014.0
20260830035005 26 64 14.5 0.0 0.00 0.00 0.00 71 1014.0
20260830034505 26 185 29.0 0.0 0.00 0.00 0.00 71 1014.0
20260830034004 26 128 14.5 0.0 0.00 0.00 0.00 71 1014.0
20260830033505 26 65 14.5 0.0 0.00 0.00 0.00 70 1014.0
20260830033005 27 103 20.9 0.0 0.00 0.00 0.00 70 1013.7
20260830032712 27 113 20.9 0.0 0.00 0.00 0.00 69 1014.0
20260830032005 27 65 6.4 0.0 0.00 0.00 0.00 69 1013.7
20260830031504 27 102 14.5 0.0 0.00 0.00 0.00 69 1013.7
20260830031005 27 125 6.4 0.0 0.00 0.00 0.00 69 1013.7
20260830030505 27 123 6.4 0.0 0.00 0.00 0.00 69 1013.7
20260830030005 27 65 0.0 0.0 0.00 0.00 0.00 68 1013.3
20260830025505 27 47 20.9 0.0 0.00 0.00 0.00 67 1013.3
20260830025005 27 15 14.5 0.0 0.00 0.00 0.00 67 1013.3
20260830024505 27 52 14.5 0.0 0.00 0.00 0.00 66 1013.3
20260830024005 27 342 6.4 0.0 0.00 0.00 0.00 66 1013.3
20260830023505 27 130 20.9 0.0 0.00 0.00 0.00 65 1013.3
20260830023005 27 148 14.5 0.0 0.00 0.00 0.00 65 1013.0
20260830022505 27 61 6.4 0.0 0.00 0.00 0.00 65 1013.0
20260830022005 28 94 6.4 0.0 0.00 0.00 0.00 65 1013.0
20260830021505 28 110 6.4 0.0 0.00 0.00 0.00 65 1013.0
20260830021005 28 95 37.0 0.0 0.00 0.00 0.00 65 1013.0
20260830020505 28 53 29.0 0.0 0.00 0.00 0.00 64 1013.0
20260830020005 28 44 29.0 0.0 0.00 0.00 0.00 64 1013.0